Waarnemingen

Advertentie
Mijn weer
Vilhelmina, Zweden (2245): temperatuur & dauwpunt: 12.01.2020 14:00:00 - 18.01.2020 14:00:00 (CET)Vilhelmina, Zweden (2245): windsnelheid & windstoten: 12.01.2020 14:00:00 - 18.01.2020 14:00:00 (CET)Vilhelmina, Zweden (2245): windrichting: 12.01.2020 14:00:00 - 18.01.2020 14:00:00 (CET)Vilhelmina, Zweden (2245): luchtdruk: 12.01.2020 14:00:00 - 18.01.2020 14:00:00 (CET)Vilhelmina, Zweden (2245): zicht: 12.01.2020 14:00:00 - 18.01.2020 14:00:00 (CET)Vilhelmina, Zweden (2245): neerslag: 12.01.2020 14:00:00 - 18.01.2020 14:00:00 (CET)
Datum & Tijd tt [°C] td [°C] ff [km/u] ff [kn] fx [km/u] fx [kn] dd ppp [hPa] vv [km] rr [mm]
18.01.2020 14:00:00 -6,8 -8,0 5 3 11 6 - 1003,5 2,5 0,1
18.01.2020 13:00:00 -6,6 -7,8 5 3 10 5 N 1003,5 2,3 0,1
18.01.2020 12:00:00 -6,5 -7,9 5 3 14 7 - 1003,3 5 0,0
18.01.2020 11:00:00 -6,6 -7,8 8 4 14 8 NO 1003,5 6 0,0
18.01.2020 10:00:00 -6,7 -7,9 8 4 15 8 N 1003,9 3,5 0,0
18.01.2020 09:00:00 -6,6 -7,7 5 3 10 5 - 1004,2 2,2 0,0
18.01.2020 08:00:00 -6,6 -7,7 5 3 13 7 NNO 1004,1 2,9 0,0
18.01.2020 07:00:00 -6,4 -7,5 5 3 12 7 - 1004,4 8 0,0
18.01.2020 06:00:00 -6,0 -7,1 5 3 11 6 - 1004,7 7 0,0
18.01.2020 05:00:00 -5,5 -6,5 8 4 13 7 NO 1005,1 7 0,1
18.01.2020 04:00:00 -5,3 -6,1 5 3 13 7 NNO 1005,7 1,0 0,2
18.01.2020 03:00:00 -4,1 -4,9 5 3 13 7 - 1005,9 3,8 0,1
18.01.2020 02:00:00 -3,8 -4,5 9 5 15 8 NO 1006,0 1,7 0,2
18.01.2020 01:00:00 -2,7 -3,4 9 5 12 6 ONO 1006,5 4,2 0,0
18.01.2020 00:00:00 -1,8 -2,2 9 5 14 8 O 1006,6 2,5 0,3
17.01.2020 23:00:00 -1,3 -1,6 13 7 18 10 O 1006,7 2,0 0,1
17.01.2020 22:00:00 -0,6 -0,8 8 4 14 8 O 1006,9 1,6 0,9
17.01.2020 21:00:00 -0,6 -0,7 5 3 8 5 O 1007,1 1,0 0,0
17.01.2020 20:00:00 -0,9 -1,0 0 0 7 4 N 1007,2 0,3 0,0
17.01.2020 19:00:00 -1,0 -1,3 8 4 13 7 O 1007,1 2,3 0,0
17.01.2020 18:00:00 -1,0 -1,4 8 4 9 5 O 1006,9 8 0,0
17.01.2020 17:00:00 -1,2 -1,6 4 2 7 4 - 1007,3 10 0,0
17.01.2020 16:00:00 -1,5 -2,0 5 3 8 4 O 1007,4 10 0,0
17.01.2020 15:00:00 -1,6 -2,2 8 4 9 5 O 1007,3 8 0,0
17.01.2020 14:00:00 -1,7 -2,4 8 4 8 4 O 1007,3 9 0,0
17.01.2020 13:00:00 -1,9 -2,9 8 4 10 6 O 1007,2 9 0,0
17.01.2020 12:00:00 -1,8 -2,8 9 5 11 6 O 1007,5 10 0,0
17.01.2020 11:00:00 -1,9 -2,7 5 3 11 6 O 1007,7 10 0,0
17.01.2020 10:00:00 -1,5 -3,0 9 5 14 8 ZO 1007,9 10 0,0
17.01.2020 09:00:00 -1,1 -2,7 8 4 14 8 ZZO 1007,7 10 0,0
17.01.2020 08:00:00 -2,1 -2,9 9 5 14 7 Z 1007,9 10 0,0
17.01.2020 07:00:00 -1,7 -2,3 4 2 9 5 - 1007,7 10 0,0
17.01.2020 06:00:00 -0,7 -1,5 4 2 17 9 - 1007,7 10 0,0
17.01.2020 05:00:00 -0,1 -1,4 15 8 20 11 ZZW 1007,4 10 0,0
17.01.2020 04:00:00 -0,8 -1,7 9 5 15 8 Z 1007,9 10 0,0
17.01.2020 03:00:00 -1,5 -2,1 9 5 14 8 OZO 1007,6 9 0,0
17.01.2020 02:00:00 -0,6 -1,4 9 5 15 8 ZZW 1007,4 10 0,0
17.01.2020 01:00:00 -1,0 -1,7 4 2 15 8 - 1006,7 10 0,0
17.01.2020 00:00:00 -2,5 -3,0 0 0 13 7 N 1005,9 10 0,0
16.01.2020 23:00:00 -1,5 -2,5 5 3 12 6 - 1005,4 10 0,0
16.01.2020 22:00:00 -3,0 -3,4 2 1 16 8 - 1004,7 10 0,0
16.01.2020 21:00:00 -2,4 -3,2 11 6 21 11 ZZW 1003,9 10 0,0
16.01.2020 20:00:00 -2,8 -3,6 13 7 22 12 ZZW 1003,6 10 0,0
16.01.2020 19:00:00 -4,5 -5,3 14 8 21 11 ZZW 1003,0 50 0,0
16.01.2020 18:00:00 -4,4 -5,2 8 4 16 9 ZZW 1002,8 10 0,0
16.01.2020 17:00:00 -7,5 -8,2 0 0 9 5 N 1002,8 9 0,0
16.01.2020 16:00:00 -6,1 -6,8 5 3 12 7 - 1002,4 10 0,0
16.01.2020 15:00:00 -6,8 -7,7 2 1 7 4 - 1002,2 10 0,0
16.01.2020 14:00:00 -5,0 -5,7 4 2 9 5 - 1001,3 8 0,0
16.01.2020 13:00:00 -8,0 -8,9 4 2 7 4 - 1001,0 9 0,0
16.01.2020 12:00:00 -9,2 -10,3 0 0 4 2 N 1001,2 10 0,0
16.01.2020 11:00:00 -11,3 -12,7 4 2 5 3 O 1000,0 10 0,0
16.01.2020 10:00:00 -15,9 -17,6 0 0 4 2 N 1000,0 7 0,0
16.01.2020 09:00:00 -15,0 -16,5 4 2 6 4 - 998,7 0,4 0,0
16.01.2020 08:00:00 -14,4 -15,9 4 2 6 4 ONO 997,6 3,1 0,0
16.01.2020 07:00:00 -14,4 -16,1 0 0 6 4 N 997,7 10 0,0
16.01.2020 06:00:00 -14,1 -15,8 0 0 7 4 N 996,8 10 0,0
16.01.2020 05:00:00 -13,2 -14,6 4 2 7 4 O 995,7 10 0,0
16.01.2020 04:00:00 -12,6 -13,9 4 2 4 2 - 995,6 10 0,0
16.01.2020 03:00:00 -11,7 -13,1 4 2 4 2 OZO 995,3 10 0,0
16.01.2020 02:00:00 -9,8 -11,0 0 0 9 5 N 994,8 10 0,0
16.01.2020 01:00:00 -6,9 -7,6 5 3 12 6 ZZW 993,5 10 0,0
16.01.2020 00:00:00 -4,9 -5,4 9 5 10 5 ZW 992,5 10 0,0
15.01.2020 23:00:00 -5,5 -6,0 8 4 9 5 Z 991,7 10 0,0
15.01.2020 22:00:00 -3,4 -4,5 4 2 6 3 - 990,9 10 0,0
15.01.2020 21:00:00 -3,3 -4,0 0 0 10 5 N 989,9 50 0,0
15.01.2020 20:00:00 -0,8 -1,5 9 5 13 7 ZW 988,8 10 0,0
15.01.2020 19:00:00 -2,4 -2,7 0 0 8 5 N 987,7 10 0,0
15.01.2020 18:00:00 -1,6 -1,9 8 4 9 5 ZW 986,4 10 0,0
15.01.2020 17:00:00 -1,6 -1,9 9 5 10 5 ZW 985,4 2,3 0,1
15.01.2020 16:00:00 -1,7 -2,0 4 2 5 3 ZW 984,3 2,1 0,4
15.01.2020 15:00:00 -1,9 -2,2 0 0 2 1 N 983,4 1,9 0,7
15.01.2020 14:00:00 -1,8 -2,2 0 0 6 3 N 982,8 0,7 0,3
15.01.2020 13:00:00 -1,8 -2,2 8 4 9 5 O 982,2 10 0,2
15.01.2020 12:00:00 -2,1 -2,5 8 4 9 5 O 981,8 2,4 0,9
15.01.2020 11:00:00 -2,4 -2,8 8 4 10 5 O 982,0 10 0,2
15.01.2020 10:00:00 -2,6 -3,1 9 5 12 6 O 982,2 10 0,0
15.01.2020 09:00:00 -2,8 -3,2 8 4 11 6 O 982,7 10 0,0
15.01.2020 08:00:00 -3,2 -3,7 9 5 11 6 O 983,2 10 0,0
15.01.2020 07:00:00 -3,1 -3,5 8 4 12 6 OZO 983,5 10 0,0
15.01.2020 06:00:00 -3,5 -3,9 11 6 14 8 OZO 984,3 10 0,0
15.01.2020 05:00:00 -2,9 -3,4 9 5 14 8 OZO 984,9 10 0,0
15.01.2020 04:00:00 -1,6 -1,8 5 3 13 7 - 985,8 10 0,0
15.01.2020 03:00:00 -1,7 -2,0 5 3 14 7 ZW 985,6 7 0,0
15.01.2020 02:00:00 -1,6 -1,7 4 2 16 9 - 985,9 4,9 0,0
15.01.2020 01:00:00 -1,3 -1,4 10 6 16 9 Z 986,0 32 0,0
15.01.2020 00:00:00 -1,1 -1,4 2 1 11 6 - 985,8 10 0,0
14.01.2020 23:00:00 -0,3 -0,4 8 4 15 8 ZZW 984,9 2,6 0,6
14.01.2020 22:00:00 -0,3 -0,6 4 2 18 10 - 984,7 10 0,0
14.01.2020 21:00:00 0,0 -0,4 4 2 11 6 - 984,0 10 0,0
14.01.2020 20:00:00 0,5 0,2 0 0 9 5 N 983,6 10 0,0
14.01.2020 19:00:00 0,4 0,3 4 2 15 8 - 983,1 10 0,0
14.01.2020 18:00:00 0,3 0,2 5 3 21 11 ZZW 983,2 10 0,0
14.01.2020 17:00:00 0,1 0,0 15 8 27 15 ZZW 982,9 10 0,0
14.01.2020 16:00:00 -0,2 -0,4 15 8 29 16 Z 982,9 5 0,0
14.01.2020 15:00:00 -0,3 -0,6 15 8 32 18 ZZO 983,4 2,6 0,4
14.01.2020 14:00:00 -0,5 -0,8 21 11 33 18 ZZO 984,4 1,8 0,2
14.01.2020 13:00:00 -0,7 -1,1 21 11 35 19 ZZO 985,5 1,9 0,5
14.01.2020 12:00:00 -1,2 -1,5 18 10 34 18 ZZO 986,9 0,9 0,4
14.01.2020 11:00:00 -1,1 -1,7 21 11 33 18 ZZO 988,1 4,9 0,0
14.01.2020 10:00:00 -1,4 -2,8 16 9 32 17 ZZO 989,8 5 0,0
14.01.2020 09:00:00 -1,7 -4,5 16 9 30 16 Z 991,0 10 0,0
14.01.2020 08:00:00 -2,5 -5,6 18 10 27 15 Z 991,8 10 0,0
14.01.2020 07:00:00 -3,1 -6,9 18 10 30 16 Z 992,7 10 0,0
14.01.2020 06:00:00 -3,2 -7,3 9 5 19 10 O 993,6 10 0,0
14.01.2020 05:00:00 -6,1 -8,7 8 4 15 8 ZO 994,8 10 0,0
14.01.2020 04:00:00 -5,0 -7,6 5 3 16 8 - 995,7 10 0,0
14.01.2020 03:00:00 -7,1 -10,3 8 4 16 8 ZZO 996,5 10 0,0
14.01.2020 02:00:00 -3,6 -8,1 9 5 16 9 Z 996,1 10 0,0
14.01.2020 01:00:00 -4,1 -7,7 5 3 21 12 - 996,0 10 0,0
14.01.2020 00:00:00 -2,9 -7,1 2 1 15 8 - 996,3 10 0,0
13.01.2020 23:00:00 -1,8 -6,9 13 7 24 13 ZZW 996,5 10 0,0
13.01.2020 22:00:00 -1,6 -5,4 15 8 25 13 ZZW 996,5 10 0,0
13.01.2020 21:00:00 -0,7 -3,6 16 9 29 16 ZW 996,2 10 0,0
13.01.2020 20:00:00 -2,2 -5,0 8 4 20 11 ZZO 995,8 10 0,0
13.01.2020 19:00:00 -1,9 -4,7 16 9 29 16 ZW 995,1 10 0,0
13.01.2020 18:00:00 -1,4 -5,3 15 8 28 15 ZZW 995,1 10 0,0
13.01.2020 17:00:00 -1,4 -5,8 16 9 33 18 ZZW 994,4 10 0,0
13.01.2020 16:00:00 -2,1 -6,7 18 10 27 15 ZZW 994,3 10 0,0
13.01.2020 15:00:00 -2,3 -7,2 13 7 24 13 ZZW 994,7 10 0,0
13.01.2020 14:00:00 -1,9 -7,2 9 5 29 15 Z 994,8 10 0,0
13.01.2020 13:00:00 -2,5 -6,9 24 13 39 21 ZZW 995,0 10 0,0
13.01.2020 12:00:00 -3,1 -6,4 4 2 15 8 - 995,2 10 0,0
13.01.2020 11:00:00 -4,5 -6,9 11 6 23 12 ZZW 995,4 10 0,0
13.01.2020 10:00:00 -5,1 -7,3 9 5 25 13 ZZW 995,8 10 0,0
13.01.2020 09:00:00 -3,5 -5,8 15 8 24 13 ZW 995,6 10 0,0
13.01.2020 08:00:00 -7,4 -8,2 0 0 14 8 N 995,7 10 0,0
13.01.2020 07:00:00 -4,3 -6,8 16 9 33 18 ZZW 994,9 10 0,0
13.01.2020 06:00:00 -4,2 -6,8 18 10 27 15 ZW 994,6 10 0,0
13.01.2020 05:00:00 -4,0 -6,6 13 7 23 12 ZZW 994,3 10 0,0
13.01.2020 04:00:00 -3,8 -6,1 18 10 28 15 ZW 994,5 10 0,0
13.01.2020 03:00:00 -3,9 -6,2 11 6 16 8 ZZW 994,3 10 0,0
13.01.2020 02:00:00 -4,3 -6,4 5 3 21 11 - 994,4 10 0,0
13.01.2020 01:00:00 -4,8 -6,8 13 7 21 12 ZW 994,2 10 0,0
13.01.2020 00:00:00 -4,1 -6,2 13 7 21 11 ZZW 993,6 10 0,0
12.01.2020 23:00:00 -4,4 -6,1 13 7 22 12 ZW 993,7 8 0,0
12.01.2020 22:00:00 -2,9 -5,2 15 8 23 12 ZZW 993,3 10 0,0
12.01.2020 21:00:00 -1,9 -4,6 13 7 22 12 Z 993,1 10 0,0
12.01.2020 20:00:00 -3,4 -5,3 13 7 22 12 ZZW 993,0 10 0,0
12.01.2020 19:00:00 -2,6 -4,6 11 6 21 11 ZZW 992,7 10 0,0
12.01.2020 18:00:00 -2,2 -4,4 15 8 23 12 ZW 992,6 10 0,0
12.01.2020 17:00:00 -1,9 -4,1 18 10 34 18 ZW 991,9 10 0,0
12.01.2020 16:00:00 -1,8 -4,2 16 9 26 14 ZW 991,9 10 0,0
12.01.2020 15:00:00 -1,3 -4,3 18 10 31 17 ZW 991,8 10 0,0
12.01.2020 14:00:00 -0,4 -3,9 13 7 24 13 ZW 991,0 10 0,0

tt = temperatuur
td = dauwpunt
ff = windsnelheid
fx = windstoten
dd = windrichting
ppp = luchtdruk
vv = zicht
rr = neerslag

Weerstations in de omgeving